[[{"header":{"parameterUnit":"m.s-1","parameterCategory":2,"la1":30.2992,"la2":30.254,"lo1":-89.0895,"lo2":-89.0443,"dy":0.0025,"dx":0.0025,"nx":19,"ny":19,"refTime":"2026-03-08T09:00:00:Z","depth":"0","parameterNumber":2,"parameterNumberName":"U-component_of_CURRENTS"},"data":[0,0,0,0.1871,0.1869,0.1725,0.1724,0.1553,0.1552,0,0,0,0,0,0,0,0,0,0,0,0.1909,0.1909,0.1871,0.1869,0.1725,0.1724,0.1553,0.1552,0,0,0,0,0,0,0,0,0,0,0,0.1909,0.1909,0.1908,0.1869,0.1726,0.1724,0.1553,0.1651,0,0,0,0,0,0,0,0,0,0,0.1785,0.1836,0.1909,0.1908,0.1868,0.1726,0.1724,0.1655,0.1645,0.1632,0,0.162,0,0.1602,0.1544,0.1543,0,0,0,0.1836,0.1845,0.1809,0.1908,0.1867,0.1726,0.1781,0.1649,0.1637,0.1619,0.1618,0.1612,0.1599,0.1543,0.1542,0.146,0.146,0,0,0.1844,0.1875,0.1817,0.1803,0.1844,0.1786,0.1777,0.1641,0.1635,0.1617,0.1608,0.1597,0.1542,0.1541,0.146,0.146,0,0,0,0.1889,0.1881,0.1847,0.1809,0.1793,0.1782,0.1772,0.164,0.163,0.1606,0.1595,0.1541,0.154,0.146,0.146,0.1459,0,0,0,0.1892,0.191,0.1851,0.1867,0.1797,0.1716,0.1774,0.1638,0.1623,0.1595,0.1541,0.1539,0.146,0.146,0.1459,0.1457,0,0,0,0.1913,0.1912,0.19,0.1869,0.1824,0.1718,0.1698,0.1634,0.1618,0.1543,0.1538,0.146,0.146,0.1459,0.1457,0.1441,0,0,0,0.1942,0.1922,0.1901,0.1866,0.1825,0.1732,0.1698,0.1619,0.1556,0.1541,0.146,0.146,0.1459,0.1457,0.1441,0.1423,0.142,0,0,0.1931,0.1921,0.1897,0.1876,0.1803,0.1748,0.1661,0.1573,0.1555,0.15,0.1497,0.1459,0.1457,0.1441,0.1425,0.1422,0,0,0,0.1902,0.1886,0.1859,0.1812,0.1747,0.1676,0.1595,0.1564,0.1506,0.1525,0.146,0.1459,0.1449,0.1438,0.1436,0.1465,0.146,0.146,0.146,0.1896,0.1862,0.1814,0.1761,0.1706,0.1616,0.1558,0.1507,0.1489,0.148,0.1459,0.1448,0.1438,0.1435,0.1466,0.1461,0.1461,0.1461,0.1461,0.1857,0.1812,0.1781,0.1727,0.1665,0.1595,0.1513,0.1495,0.1446,0.1453,0.1443,0.144,0.1433,0.1467,0.1461,0.1461,0.1461,0.1461,0.1461,0.1827,0.1802,0.1784,0.1713,0.1647,0.1577,0.1502,0.1467,0.1449,0.1436,0.1421,0.1421,0.1449,0.1434,0.1434,0.1434,0.1434,0.1434,0.1434,0.1792,0.1774,0.174,0.1688,0.1643,0.1576,0.1494,0.1456,0.1423,0.1416,0.1416,0.1449,0.1439,0.1438,0.1433,0.1433,0.1433,0.1433,0.1433,0.1713,0.1734,0.1681,0.1648,0.1563,0.1508,0.1459,0.14,0.1376,0.1367,0.1417,0.1397,0.1392,0.1394,0.1391,0.1374,0.1374,0.1374,0.1374,0.1663,0.1671,0.1601,0.1548,0.1487,0.1458,0.1378,0.1349,0.1377,0.1403,0.1411,0.1423,0.1424,0.1422,0.1424,0.1422,0.1414,0.1414,0.1414,0.1596,0.1597,0.1526,0.1502,0.1443,0.1409,0.1335,0.1295,0.1377,0.142,0.1456,0.1455,0.1479,0.1478,0.148,0.1479,0.1479,0,0]},{"header":{"parameterUnit":"m.s-1","parameterCategory":2,"la1":30.2992,"la2":30.254,"lo1":-89.0895,"lo2":-89.0443,"dy":0.0025,"dx":0.0025,"nx":19,"ny":19,"refTime":"2026-03-08T09:00:00:Z","depth":"0","parameterNumber":3,"parameterNumberName":"V-component_of_CURRENTS"},"data":[0,0,0,-0.1845,-0.1843,-0.1708,-0.1707,-0.1516,-0.1514,0,0,0,0,0,0,0,0,0,0,0,-0.189,-0.189,-0.1845,-0.1843,-0.1708,-0.1707,-0.1516,-0.1514,0,0,0,0,0,0,0,0,0,0,0,-0.189,-0.189,-0.189,-0.1842,-0.1708,-0.1707,-0.1516,-0.1614,0,0,0,0,0,0,0,0,0,0,-0.1744,-0.1812,-0.189,-0.189,-0.1842,-0.1709,-0.1707,-0.1619,-0.1608,-0.1582,0,-0.1583,0,-0.156,-0.1504,-0.1504,0,0,0,-0.1808,-0.1821,-0.1781,-0.189,-0.1841,-0.1709,-0.1759,-0.1613,-0.1601,-0.1568,-0.158,-0.1573,-0.1557,-0.1503,-0.1503,-0.1378,-0.1378,0,0,-0.1816,-0.186,-0.179,-0.1775,-0.1834,-0.1764,-0.1755,-0.1605,-0.1607,-0.158,-0.1569,-0.1553,-0.1502,-0.1501,-0.1378,-0.1378,0,0,0,-0.186,-0.1866,-0.1829,-0.1783,-0.1768,-0.1761,-0.1751,-0.1613,-0.1601,-0.1567,-0.1551,-0.1502,-0.15,-0.1379,-0.1378,-0.1387,0,0,0,-0.1863,-0.1894,-0.1833,-0.1857,-0.1772,-0.1695,-0.1763,-0.1611,-0.1593,-0.1552,-0.1501,-0.1498,-0.1379,-0.1379,-0.1388,-0.1384,0,0,0,-0.1891,-0.1897,-0.1889,-0.186,-0.1816,-0.1697,-0.1674,-0.1606,-0.1585,-0.1504,-0.1498,-0.1379,-0.1379,-0.1388,-0.1384,-0.1325,0,0,0,-0.1927,-0.1931,-0.1891,-0.1876,-0.1818,-0.1723,-0.1675,-0.1597,-0.1531,-0.1501,-0.1379,-0.1378,-0.1388,-0.1384,-0.1326,-0.1291,-0.1283,0,0,-0.1948,-0.1935,-0.1919,-0.188,-0.1808,-0.1737,-0.1646,-0.155,-0.1512,-0.1422,-0.1418,-0.1387,-0.1384,-0.1325,-0.1259,-0.1251,0,0,0,-0.1934,-0.1923,-0.1895,-0.1844,-0.1766,-0.1674,-0.1583,-0.1534,-0.1444,-0.1478,-0.1374,-0.1371,-0.1333,-0.1315,-0.1308,-0.1201,-0.1376,-0.1376,-0.1376,-0.1996,-0.1934,-0.1891,-0.1805,-0.1742,-0.1619,-0.154,-0.1456,-0.1431,-0.1401,-0.1368,-0.1316,-0.1298,-0.1292,-0.1183,-0.1361,-0.1361,-0.1361,-0.1361,-0.1989,-0.1939,-0.1871,-0.1807,-0.1707,-0.1623,-0.1481,-0.1444,-0.1335,-0.1349,-0.1312,-0.1314,-0.1286,-0.1171,-0.1361,-0.1361,-0.1361,-0.1361,-0.1361,-0.1992,-0.1956,-0.1926,-0.1821,-0.1725,-0.161,-0.1487,-0.1405,-0.1338,-0.1301,-0.1245,-0.1245,-0.1148,-0.1276,-0.1276,-0.1276,-0.1276,-0.1275,-0.1275,-0.1992,-0.1957,-0.19,-0.1816,-0.1745,-0.1639,-0.148,-0.1394,-0.1277,-0.1235,-0.1234,-0.1109,-0.1289,-0.1298,-0.1271,-0.1272,-0.1272,-0.1273,-0.1273,-0.1938,-0.1934,-0.1853,-0.1792,-0.1653,-0.1541,-0.1449,-0.1292,-0.1209,-0.1154,-0.1006,-0.118,-0.1161,-0.1166,-0.117,-0.1112,-0.1112,-0.1112,-0.1112,-0.1893,-0.1889,-0.1759,-0.1661,-0.1562,-0.1468,-0.1294,-0.1178,-0.1014,-0.0913,-0.0878,-0.0891,-0.0902,-0.0869,-0.0881,-0.0879,-0.0748,-0.0747,-0.0747,-0.182,-0.1799,-0.1686,-0.161,-0.1495,-0.1389,-0.1189,-0.0981,-0.08,-0.0722,-0.073,-0.0746,-0.0758,-0.0784,-0.0732,-0.0757,-0.0756,0,0]}],[{"header":{"parameterUnit":"m.s-1","parameterCategory":2,"la1":30.2992,"la2":30.254,"lo1":-89.0895,"lo2":-89.0443,"dy":0.0025,"dx":0.0025,"nx":19,"ny":19,"refTime":"2026-03-08T09:00:00:Z","depth":"2","parameterNumber":2,"parameterNumberName":"U-component_of_CURRENTS"},"data":[0,0,0,0.0292,0.0293,0.0317,0.0317,0.0367,0.0367,0,0,0,0,0,0,0,0,0,0,0,0.0293,0.0293,0.0292,0.0293,0.0317,0.0317,0.0366,0.0367,0,0,0,0,0,0,0,0,0,0,0,0.0293,0.0293,0.0294,0.0293,0.0317,0.0317,0.0366,0.0342,0,0,0,0,0,0,0,0,0,0,0.0316,0.0329,0.0293,0.0294,0.0293,0.0317,0.0317,0.0341,0.0344,0.0362,0,0.0377,0,0.0372,0.0371,0.0371,0,0,0,0.0289,0.0327,0.032,0.0294,0.0293,0.0317,0.0305,0.0342,0.0346,0.0366,0.0378,0.0379,0.0373,0.0372,0.0372,0.0474,0.0474,0,0,0.0287,0.0309,0.0317,0.0322,0.0315,0.0304,0.0306,0.0344,0.0364,0.0378,0.038,0.0374,0.0372,0.0372,0.0473,0.0474,0,0,0,0.0286,0.0308,0.03,0.0321,0.0323,0.0305,0.0307,0.0362,0.0356,0.038,0.0374,0.0372,0.0373,0.0472,0.0473,0.0471,0,0,0,0.0285,0.0307,0.0299,0.0314,0.0323,0.0344,0.0324,0.0353,0.0357,0.0374,0.0372,0.0374,0.0472,0.0473,0.0469,0.0451,0,0,0,0.0289,0.0308,0.0312,0.0314,0.0324,0.0343,0.0339,0.0354,0.0353,0.0371,0.0374,0.0471,0.0473,0.0468,0.0449,0.0447,0,0,0,0.0306,0.0345,0.0313,0.0365,0.0324,0.0373,0.0338,0.0377,0.0399,0.0373,0.0472,0.0473,0.0468,0.0449,0.0446,0.0443,0.0446,0,0,0.0363,0.0353,0.0383,0.0354,0.0407,0.0368,0.0425,0.0429,0.0427,0.0458,0.046,0.047,0.0449,0.0447,0.0534,0.0533,0,0,0,0.0406,0.0422,0.044,0.046,0.0476,0.0464,0.0474,0.0472,0.0481,0.0446,0.0503,0.049,0.0488,0.0487,0.0487,0.0481,0.0481,0.048,0.048,0.0486,0.0482,0.0521,0.0517,0.0541,0.0541,0.0539,0.0534,0.0539,0.0543,0.0513,0.0542,0.0544,0.0543,0.0552,0.0552,0.0552,0.0552,0.0552,0.0541,0.0539,0.054,0.0558,0.0541,0.0561,0.0568,0.0558,0.0561,0.0554,0.0552,0.0516,0.0543,0.0553,0.0552,0.0552,0.0552,0.0552,0.0552,0.0557,0.0545,0.0548,0.0543,0.0529,0.0525,0.051,0.0519,0.054,0.0543,0.0533,0.0533,0.0509,0.0537,0.0537,0.0537,0.0537,0.0537,0.0537,0.054,0.0546,0.0531,0.0521,0.0494,0.0467,0.0462,0.0471,0.0498,0.0525,0.0526,0.0537,0.0537,0.0509,0.0536,0.0536,0.0536,0.0536,0.0536,0.0514,0.0518,0.0502,0.0479,0.0439,0.0413,0.0414,0.0428,0.0453,0.0473,0.0524,0.0525,0.0518,0.0519,0.0492,0.0512,0.0512,0.0512,0.0512,0.0482,0.049,0.0454,0.0425,0.04,0.0385,0.0356,0.0349,0.0403,0.0435,0.0438,0.0443,0.0446,0.0436,0.0438,0.0409,0.0408,0.0407,0.0407,0.044,0.0445,0.04,0.0394,0.0369,0.0362,0.031,0.0195,0.0238,0.0399,0.0385,0.0512,0.0528,0.053,0.0522,0.0523,0.0479,0,0]},{"header":{"parameterUnit":"m.s-1","parameterCategory":2,"la1":30.2992,"la2":30.254,"lo1":-89.0895,"lo2":-89.0443,"dy":0.0025,"dx":0.0025,"nx":19,"ny":19,"refTime":"2026-03-08T09:00:00:Z","depth":"2","parameterNumber":3,"parameterNumberName":"V-component_of_CURRENTS"},"data":[0,0,0,0.0466,0.0465,0.0441,0.0441,0.0492,0.0492,0,0,0,0,0,0,0,0,0,0,0,0.0466,0.0465,0.0466,0.0465,0.0441,0.0441,0.0492,0.0492,0,0,0,0,0,0,0,0,0,0,0,0.0466,0.0465,0.0465,0.0465,0.0441,0.0441,0.0491,0.0492,0,0,0,0,0,0,0,0,0,0,0.0506,0.0482,0.0466,0.0465,0.0465,0.0441,0.0441,0.0491,0.0492,0.0523,0,0.0501,0,0.0499,0.0497,0.0497,0,0,0,0.0475,0.0481,0.0483,0.0465,0.0464,0.0441,0.0455,0.0491,0.0492,0.0524,0.0502,0.0503,0.05,0.0497,0.0497,0.0566,0.0567,0,0,0.0476,0.0461,0.0481,0.0482,0.0437,0.0455,0.0454,0.0491,0.048,0.0502,0.0504,0.0501,0.0497,0.0498,0.0566,0.0566,0,0,0,0.0473,0.0462,0.0461,0.0481,0.047,0.0454,0.0453,0.0478,0.0479,0.0505,0.0501,0.0498,0.0499,0.0566,0.0566,0.0543,0,0,0,0.0475,0.046,0.0461,0.0452,0.0468,0.0461,0.0439,0.0476,0.0481,0.0501,0.0498,0.0499,0.0565,0.0566,0.0543,0.054,0,0,0,0.0471,0.0459,0.0452,0.0451,0.0438,0.046,0.0462,0.0477,0.0479,0.0497,0.0499,0.0565,0.0566,0.0543,0.054,0.0534,0,0,0,0.0465,0.0464,0.045,0.046,0.0438,0.0472,0.0462,0.0469,0.0482,0.0498,0.0566,0.0566,0.0543,0.054,0.0534,0.0513,0.051,0,0,0.0473,0.0464,0.0478,0.0467,0.0507,0.0477,0.0518,0.0511,0.0507,0.056,0.0561,0.0543,0.054,0.0534,0.055,0.0547,0,0,0,0.049,0.0493,0.0507,0.0518,0.0535,0.0542,0.0536,0.0535,0.0534,0.0515,0.0563,0.0563,0.0559,0.0547,0.0545,0.0569,0.0569,0.0569,0.0569,0.046,0.0498,0.0524,0.0561,0.0577,0.0587,0.0593,0.059,0.0573,0.056,0.0558,0.0559,0.0546,0.0544,0.0571,0.0571,0.0571,0.0571,0.057,0.0477,0.0495,0.0529,0.0545,0.0564,0.057,0.0622,0.0599,0.0597,0.0577,0.0573,0.0541,0.054,0.0569,0.0569,0.0569,0.057,0.057,0.057,0.0453,0.0471,0.0452,0.0469,0.0479,0.051,0.0542,0.056,0.0566,0.0566,0.0528,0.0529,0.0535,0.0533,0.0533,0.0533,0.0533,0.0533,0.0533,0.0416,0.0426,0.0382,0.0397,0.0379,0.0406,0.0459,0.0489,0.0508,0.0513,0.0513,0.0547,0.0548,0.0534,0.0532,0.0533,0.0533,0.0533,0.0533,0.041,0.0366,0.0323,0.0284,0.0305,0.0368,0.0421,0.0456,0.0468,0.0478,0.0499,0.05,0.0507,0.0509,0.0496,0.0484,0.0484,0.0484,0.0484,0.0376,0.0369,0.0269,0.0232,0.0275,0.0363,0.0416,0.0488,0.0515,0.0552,0.055,0.0557,0.0557,0.0568,0.0569,0.0557,0.0562,0.0562,0.0563,0.036,0.0328,0.0247,0.0204,0.0252,0.0385,0.042,0.0576,0.0698,0.0571,0.0619,0.0478,0.0481,0.0484,0.0495,0.0498,0.0478,0,0]}],[{"header":{"parameterUnit":"m.s-1","parameterCategory":2,"la1":30.2992,"la2":30.254,"lo1":-89.0895,"lo2":-89.0443,"dy":0.0025,"dx":0.0025,"nx":19,"ny":19,"refTime":"2026-03-08T09:00:00:Z","depth":"4","parameterNumber":2,"parameterNumberName":"U-component_of_CURRENTS"},"data":[0,0,0,-0.0335,-0.0335,-0.0326,-0.0326,-0.032,-0.032,0,0,0,0,0,0,0,0,0,0,0,-0.0336,-0.0336,-0.0335,-0.0335,-0.0326,-0.0326,-0.032,-0.032,0,0,0,0,0,0,0,0,0,0,0,-0.0336,-0.0336,-0.0336,-0.0335,-0.0326,-0.0326,-0.032,-0.0324,0,0,0,0,0,0,0,0,0,0,-0.0332,-0.0334,-0.0336,-0.0336,-0.0335,-0.0326,-0.0326,-0.0324,-0.0324,-0.0327,0,-0.0327,0,-0.0327,-0.032,-0.032,0,0,0,-0.033,-0.0334,-0.0333,-0.0336,-0.0335,-0.0326,-0.0329,-0.0324,-0.0324,-0.0327,-0.0327,-0.0327,-0.0327,-0.032,-0.032,-0.0282,-0.0281,0,0,-0.0331,-0.0333,-0.0333,-0.0333,-0.0335,-0.0329,-0.0329,-0.0324,-0.0324,-0.0327,-0.0327,-0.0327,-0.032,-0.032,-0.0282,-0.0282,0,0,0,-0.0336,-0.0333,-0.0332,-0.0333,-0.0333,-0.0329,-0.0328,-0.0324,-0.0324,-0.0327,-0.0327,-0.032,-0.032,-0.0283,-0.0282,-0.0189,0,0,0,-0.0336,-0.0337,-0.0332,-0.0333,-0.0333,-0.0328,-0.0329,-0.0324,-0.0323,-0.0327,-0.032,-0.032,-0.0283,-0.0282,-0.0192,-0.02,0,0,0,-0.0336,-0.0337,-0.0336,-0.0333,-0.0332,-0.0328,-0.0327,-0.0323,-0.0324,-0.032,-0.032,-0.0283,-0.0282,-0.0196,-0.0204,-0.0298,0,0,0,-0.0337,-0.0327,-0.0336,-0.0319,-0.0332,-0.0307,-0.0327,-0.0309,-0.0302,-0.032,-0.0283,-0.0282,-0.0197,-0.0206,-0.0299,-0.0269,0,0,0,-0.0321,-0.0325,-0.0312,-0.032,-0.0291,-0.0308,-0.0254,-0.0256,-0.0288,-0.0286,-0.0285,-0.0191,-0.0204,-0.0298,-0.0207,0,0,0,0,-0.0304,-0.0293,-0.0288,-0.0272,-0.0265,-0.0231,-0.0229,-0.0235,-0.0219,-0.0281,-0.0196,-0.0209,-0.0272,-0.0253,-0.0277,-0.0277,-0.0277,-0.0277,-0.0277,-0.0272,-0.0262,-0.0231,-0.021,-0.019,-0.0168,-0.0158,-0.0163,-0.017,-0.0153,-0.0133,-0.0147,-0.0116,-0.0112,-0.0111,-0.0111,-0.011,-0.011,-0.011,-0.0227,-0.0203,-0.0177,-0.0139,-0.0107,-0.0056,-0.0058,-0.0062,-0.0097,-0.0075,-0.014,-0.0153,-0.0101,-0.0103,-0.0104,-0.0105,-0.0106,-0.0106,-0.0107,-0.0199,-0.0187,-0.0156,-0.0098,-0.0026,0.0017,0.0004,0.0003,-0.0053,-0.0074,-0.0143,-0.0146,-0.0161,-0.0114,-0.0114,-0.0114,-0.0115,-0.0115,-0.0115,-0.0188,-0.016,-0.0124,-0.0059,-0.0006,0.004,0.0026,-0.0033,-0.0075,-0.0089,-0.0078,-0.0152,-0.0152,-0.0166,-0.0121,-0.012,-0.0119,-0.0119,-0.0119,-0.0175,-0.0164,-0.012,-0.0076,0.0015,0.0039,0.0019,-0.0075,-0.0169,-0.022,-0.014,-0.0137,-0.0209,-0.0209,-0.0227,-0.02,-0.02,-0.0199,0,-0.0173,-0.0164,-0.0113,-0.0062,-0.001,0.0032,-0.0037,-0.0104,-0.0174,-0.0148,-0.0206,-0.0113,-0.0111,-0.0188,-0.0188,-0.0207,0,0,0,-0.0172,-0.0157,-0.0125,-0.0076,-0.0007,-0.0025,-0.0056,-0.0092,-0.0117,-0.0196,-0.0188,-0.0191,-0.0151,-0.0139,-0.0247,-0.0246,-0.0277,0,0]},{"header":{"parameterUnit":"m.s-1","parameterCategory":2,"la1":30.2992,"la2":30.254,"lo1":-89.0895,"lo2":-89.0443,"dy":0.0025,"dx":0.0025,"nx":19,"ny":19,"refTime":"2026-03-08T09:00:00:Z","depth":"4","parameterNumber":3,"parameterNumberName":"V-component_of_CURRENTS"},"data":[0,0,0,0.0522,0.0523,0.0544,0.0544,0.0521,0.052,0,0,0,0,0,0,0,0,0,0,0,0.052,0.052,0.0522,0.0523,0.0544,0.0544,0.0521,0.052,0,0,0,0,0,0,0,0,0,0,0,0.052,0.052,0.0521,0.0523,0.0544,0.0544,0.0521,0.0518,0,0,0,0,0,0,0,0,0,0,0.0504,0.0507,0.052,0.0521,0.0523,0.0544,0.0544,0.0518,0.0518,0.0496,0,0.0504,0,0.0507,0.0518,0.0517,0,0,0,0.0525,0.0507,0.0513,0.0521,0.0523,0.0544,0.0535,0.0519,0.0518,0.0496,0.0504,0.0503,0.0507,0.0517,0.0517,0.0456,0.0456,0,0,0.0524,0.0521,0.0513,0.0513,0.0533,0.0534,0.0536,0.0519,0.0519,0.0504,0.0503,0.0506,0.0517,0.0517,0.0456,0.0456,0,0,0,0.0519,0.0521,0.0528,0.0514,0.0519,0.0535,0.0536,0.052,0.0523,0.0503,0.0506,0.0517,0.0516,0.0457,0.0456,0.0445,0,0,0,0.0518,0.0518,0.0527,0.0526,0.052,0.0526,0.0538,0.0524,0.0522,0.0506,0.0517,0.0516,0.0457,0.0457,0.0446,0.0457,0,0,0,0.0518,0.0517,0.0522,0.0526,0.0533,0.0527,0.0529,0.0524,0.0524,0.0517,0.0516,0.0457,0.0457,0.0447,0.0458,0.0389,0,0,0,0.0512,0.0499,0.0522,0.0502,0.0533,0.0507,0.0529,0.0519,0.0512,0.0517,0.0457,0.0456,0.0448,0.0458,0.0391,0.0408,0,0,0,0.0485,0.0496,0.0481,0.0501,0.047,0.0504,0.0467,0.048,0.0491,0.046,0.0459,0.0446,0.0458,0.0389,0.036,0,0,0,0,0.0464,0.0466,0.0452,0.0451,0.0437,0.0428,0.0447,0.044,0.0439,0.0483,0.0432,0.044,0.0397,0.0412,0.0452,0.0452,0.0453,0.0453,0.0453,0.0447,0.0441,0.0423,0.0417,0.0401,0.0384,0.0363,0.0364,0.0396,0.0392,0.042,0.035,0.0366,0.04,0.04,0.04,0.04,0.04,0.04,0.0431,0.0432,0.0428,0.0429,0.0409,0.0411,0.0334,0.0342,0.0314,0.0369,0.0326,0.0388,0.0398,0.0398,0.0399,0.0399,0.0399,0.0399,0.0399,0.0441,0.0441,0.046,0.0472,0.0484,0.0467,0.0407,0.0371,0.0325,0.0295,0.0303,0.0325,0.0336,0.029,0.029,0.029,0.0289,0.0289,0.0289,0.0457,0.0456,0.0498,0.0522,0.0563,0.0556,0.0473,0.0373,0.0295,0.0294,0.0317,0.0313,0.0316,0.0328,0.0285,0.0286,0.0286,0.0287,0.0287,0.0473,0.0484,0.0534,0.0577,0.0615,0.0575,0.0502,0.0323,0.0216,0.0124,0.0249,0.0252,0.025,0.0254,0.0264,0.02,0.02,0.02,0,0.0493,0.0496,0.057,0.0618,0.06,0.057,0.0419,0.0283,0.0188,0.026,0.0163,0.0313,0.0313,0.0318,0.0322,0.0337,0,0,0,0.0513,0.0536,0.0598,0.064,0.0622,0.0458,0.037,0.0339,0.0271,0.0098,0.0201,0.0201,0.014,0.0273,0.0275,0.0279,0.0298,0,0]}]]